Soldotna, AK

2:16 AM AKST on February 22, 2017 (GMT -0900)
Soldotna

Weather History for PASX - January, 2015

Change the Weather History Date:

Monday, January 26, 2015

  Actual Average Record
Temperature  
Mean Temperature -2 °F -  
Max Temperature 6 °F 21 °F 48 °F (2014)
Min Temperature -11 °F 6 °F -39 °F (1973)
Degree Days  
Heating Degree Days 68    
Moisture  
Dew Point -6 °F    
Average Humidity 79    
Maximum Humidity 100    
Minimum Humidity 64    
Precipitation  
Precipitation 0.00 in - - ()
Sea Level Pressure  
Sea Level Pressure 30.02 in    
Wind  
Wind Speed 5 mph (East)    
Max Wind Speed 10 mph    
Max Gust Speed -    
Visibility 10 miles    
Events      
Averages and records for this station are not official NWS values.
T = Trace of Precipitation, MM = Missing Value Source: NWS Daily Summary

Daily Weather History Graph

Daily Weather History Graph

Search for Another Location

Airport or City:

Trip Planner

Search our weather history database for the weather conditions in past years. The results will help you decide how hot, cold, wet, or windy it might be!

Date:

Astronomy

Jan. 26, 2015 Rise Set
Actual Time 9:34 AM AKST 4:59 PM AKST
Civil Twilight 8:44 AM AKST 5:50 PM AKST
Nautical Twilight 7:51 AM AKST 6:42 PM AKST
Astronomical Twilight 7:01 AM AKST 7:32 PM AKST
Moon 11:26 AM AKST (1/26) 1:26 AM AKST (1/26)
Length of Visible Light 9h 05m
Length of Day
7h 25m
Waxing Crescent, 46% of the Moon is Illuminated
Jan 26
Waxing Crescent
Jan 26
First Quarter
Feb 3
Full
Feb 11
Last Quarter
Feb 18
New

Hourly Weather History & Observations

Time (AKST) Temp. Windchill Dew Point Humidity Pressure Visibility Wind Dir Wind Speed Gust Speed Precip Events Conditions
12:16 AM -7.6 °F -18.8 °F -9.4 °F 92% 30.01 in 10.0 mi ENE 4.6 mph - N/A   Clear
12:36 AM -7.6 °F -16.5 °F -11.2 °F 84% 30.01 in 10.0 mi ENE 3.5 mph - N/A   Clear
12:56 AM -11.2 °F -23.0 °F -20.2 °F 64% 30.02 in 10.0 mi East 4.6 mph - N/A   Clear
1:16 AM -7.6 °F -16.5 °F -7.6 °F 100% 30.02 in 10.0 mi ENE 3.5 mph - N/A   Clear
1:36 AM -9.4 °F -20.9 °F -16.6 °F 71% 30.02 in 10.0 mi East 4.6 mph - N/A   Clear
1:56 AM -9.4 °F -18.6 °F -11.2 °F 92% 30.02 in 10.0 mi East 3.5 mph - N/A   Clear
2:16 AM -11.2 °F -24.8 °F -20.2 °F 64% 30.03 in 10.0 mi East 5.8 mph - N/A   Clear
2:36 AM -9.4 °F -20.9 °F -9.4 °F 100% 30.03 in 10.0 mi East 4.6 mph - N/A   Clear
2:56 AM -7.6 °F -20.6 °F -11.2 °F 84% 30.04 in 10.0 mi East 5.8 mph - N/A   Clear
3:16 AM -7.6 °F -16.5 °F -11.2 °F 84% 30.03 in 10.0 mi East 3.5 mph - N/A   Clear
3:36 AM -9.4 °F -20.9 °F -16.6 °F 71% 30.03 in 10.0 mi East 4.6 mph - N/A   Clear
3:56 AM -7.6 °F -20.6 °F -7.6 °F 100% 30.03 in 10.0 mi East 5.8 mph - N/A   Clear
4:16 AM -7.6 °F -20.6 °F -14.8 °F 71% 30.03 in 10.0 mi East 5.8 mph - N/A   Clear
4:36 AM -7.6 °F -20.6 °F -9.4 °F 92% 30.03 in 10.0 mi East 5.8 mph - N/A   Clear
4:56 AM -9.4 °F -22.7 °F -16.6 °F 71% 30.03 in 10.0 mi ESE 5.8 mph - N/A   Clear
5:16 AM -7.6 °F -16.5 °F -13.0 °F 77% 30.03 in 10.0 mi East 3.5 mph - N/A   Clear
5:36 AM -9.4 °F - -16.6 °F 71% 30.03 in 10.0 mi Calm Calm - N/A   Clear
5:56 AM -9.4 °F -18.6 °F -14.8 °F 77% 30.03 in 10.0 mi East 3.5 mph - N/A   Clear
6:16 AM -9.4 °F -20.9 °F -14.8 °F 77% 30.03 in 10.0 mi East 4.6 mph - N/A   Clear
6:36 AM -9.4 °F -20.9 °F -14.8 °F 77% 30.03 in 10.0 mi ESE 4.6 mph - N/A   Clear
6:56 AM -7.6 °F -20.6 °F -9.4 °F 92% 30.03 in 10.0 mi ESE 5.8 mph - N/A   Clear
7:16 AM -5.8 °F -16.7 °F -9.4 °F 84% 30.03 in 10.0 mi East 4.6 mph - N/A   Clear
7:36 AM -5.8 °F -14.5 °F -9.4 °F 84% 30.03 in 10.0 mi East 3.5 mph - N/A   Clear
7:56 AM -5.8 °F -16.7 °F -9.4 °F 84% 30.03 in 10.0 mi East 4.6 mph - N/A   Clear
8:16 AM -5.8 °F -16.7 °F -9.4 °F 84% 30.03 in 10.0 mi East 4.6 mph - N/A   Clear
8:36 AM -5.8 °F -18.4 °F -9.4 °F 84% 30.03 in 10.0 mi ESE 5.8 mph - N/A   Clear
8:56 AM -4.0 °F -16.3 °F -7.6 °F 85% 30.03 in 10.0 mi East 5.8 mph - N/A   Clear
9:16 AM -4.0 °F -14.6 °F -7.6 °F 85% 30.04 in 10.0 mi East 4.6 mph - N/A   Clear
9:36 AM -5.8 °F -18.4 °F -9.4 °F 84% 30.04 in 10.0 mi ESE 5.8 mph - N/A   Clear
9:56 AM -5.8 °F -18.4 °F -9.4 °F 84% 30.04 in 10.0 mi East 5.8 mph - N/A   Clear
10:16 AM -5.8 °F -18.4 °F -9.4 °F 84% 30.04 in 10.0 mi ESE 5.8 mph - N/A   Clear
10:36 AM -2.2 °F -12.5 °F -5.8 °F 85% 30.05 in 5.0 mi ESE 4.6 mph - N/A   Clear
10:56 AM -2.2 °F -10.4 °F -7.6 °F 78% 30.05 in 9.0 mi East 3.5 mph - N/A   Clear
11:16 AM -2.2 °F -12.5 °F -7.6 °F 78% 30.05 in 9.0 mi ESE 4.6 mph - N/A   Clear
11:36 AM -2.2 °F -10.4 °F -5.8 °F 85% 30.05 in 10.0 mi East 3.5 mph - N/A   Clear
11:56 AM -0.4 °F -8.3 °F -4.0 °F 85% 30.05 in 10.0 mi ESE 3.5 mph - N/A   Clear
12:16 PM 1.4 °F -9.9 °F -2.2 °F 85% 30.05 in 10.0 mi East 5.8 mph - N/A   Clear
12:36 PM 1.4 °F -11.3 °F -0.4 °F 92% 30.04 in 10.0 mi East 6.9 mph - N/A   Clear
12:56 PM 3.2 °F -10.3 °F -2.2 °F 78% 30.04 in 10.0 mi East 8.1 mph - N/A   Clear
1:16 PM 3.2 °F -11.3 °F -0.4 °F 85% 30.03 in 10.0 mi East 9.2 mph - N/A   Partly Cloudy
1:56 PM 3.2 °F -12.2 °F -0.4 °F 85% 30.03 in 10.0 mi ENE 10.4 mph - N/A   Mostly Cloudy
2:16 PM 3.2 °F -11.3 °F -0.4 °F 85% 30.02 in 10.0 mi East 9.2 mph - N/A   Overcast
2:36 PM 3.2 °F -11.3 °F -0.4 °F 85% 30.02 in 10.0 mi ENE 9.2 mph - N/A   Overcast
2:56 PM 5.0 °F -6.9 °F -0.4 °F 78% 30.02 in 10.0 mi East 6.9 mph - N/A   Overcast
3:16 PM 5.0 °F -6.9 °F -0.4 °F 78% 30.02 in 10.0 mi East 6.9 mph - N/A   Overcast
3:36 PM 5.0 °F -9.1 °F -0.4 °F 78% 30.01 in 10.0 mi NE 9.2 mph - N/A   Overcast
3:56 PM 6.8 °F -4.8 °F -2.2 °F 67% 30.01 in 10.0 mi ENE 6.9 mph - N/A   Overcast
4:16 PM 6.8 °F -4.8 °F -0.4 °F 72% 30.01 in 10.0 mi ENE 6.9 mph - N/A   Overcast
4:36 PM 6.8 °F -4.8 °F -0.4 °F 72% 30.01 in 10.0 mi ENE 6.9 mph - N/A   Overcast
4:56 PM 6.8 °F -3.5 °F -0.4 °F 72% 30.00 in 10.0 mi ENE 5.8 mph - N/A   Overcast
5:16 PM 6.8 °F -4.8 °F -0.4 °F 72% 30.00 in 10.0 mi ENE 6.9 mph - N/A   Overcast
5:36 PM 6.8 °F -4.8 °F -0.4 °F 72% 30.00 in 10.0 mi ENE 6.9 mph - N/A   Overcast
5:56 PM 6.8 °F -5.9 °F -0.4 °F 72% 29.99 in 10.0 mi East 8.1 mph - N/A   Overcast
6:16 PM 6.8 °F -4.8 °F -0.4 °F 72% 30.00 in 10.0 mi ENE 6.9 mph - N/A   Overcast
6:36 PM 6.8 °F -3.5 °F -2.2 °F 67% 30.00 in 10.0 mi ENE 5.8 mph - N/A   Overcast
6:56 PM 6.8 °F -3.5 °F -0.4 °F 72% 30.00 in 10.0 mi East 5.8 mph - N/A   Overcast
7:16 PM 6.8 °F -3.5 °F -2.2 °F 67% 30.00 in 10.0 mi ENE 5.8 mph - N/A   Overcast
7:36 PM 6.8 °F -5.9 °F -0.4 °F 72% 30.00 in 10.0 mi ENE 8.1 mph - N/A   Overcast
7:56 PM 6.8 °F -4.8 °F -0.4 °F 72% 29.99 in 10.0 mi ENE 6.9 mph - N/A   Overcast
8:16 PM 6.8 °F -3.5 °F -0.4 °F 72% 29.99 in 10.0 mi ENE 5.8 mph - N/A   Overcast
8:36 PM 6.8 °F -4.8 °F -0.4 °F 72% 29.99 in 10.0 mi East 6.9 mph - N/A   Overcast
8:56 PM 6.8 °F -3.5 °F -0.4 °F 72% 29.99 in 10.0 mi East 5.8 mph - N/A   Overcast
9:16 PM 6.8 °F -3.5 °F -0.4 °F 72% 29.99 in 10.0 mi ENE 5.8 mph - N/A   Overcast
9:36 PM 6.8 °F -3.5 °F -0.4 °F 72% 29.99 in 10.0 mi ENE 5.8 mph - N/A   Overcast
9:56 PM 6.8 °F -3.5 °F -0.4 °F 72% 29.99 in 10.0 mi East 5.8 mph - N/A   Overcast
10:16 PM 6.8 °F -3.5 °F 1.4 °F 79% 29.99 in 10.0 mi East 5.8 mph - N/A   Overcast
10:36 PM 6.8 °F -3.5 °F -0.4 °F 72% 29.99 in 10.0 mi East 5.8 mph - N/A   Overcast
10:56 PM 6.8 °F -4.8 °F 1.4 °F 79% 29.98 in 10.0 mi East 6.9 mph - N/A   Overcast
11:16 PM 6.8 °F -3.5 °F 1.4 °F 79% 29.99 in 10.0 mi East 5.8 mph - N/A   Overcast
11:36 PM 6.8 °F -4.8 °F 1.4 °F 79% 29.98 in 10.0 mi East 6.9 mph - N/A   Overcast
11:56 PM 6.8 °F -2.0 °F 1.4 °F 79% 29.99 in 10.0 mi East 4.6 mph - N/A   Overcast